Location: Baili�vre
(50.0696°N, 4.2409°E)
Time: 08:23:20
(UTC+00:00)

Cosmos 2366 rocket - Pass Details

Date: 08 August 2020
Orbit: 955 x 997 km, 82.9° (Epoch: 26 September)

Event Time Altitude Azimuth Distance (km) Brightness Sun altitude
Rises 19:48:08 0° 193° (SSW) 3,673 6.8 -5.7°
Reaches altitude 10° 19:50:39 10° 195° (SSW) 2,723 6.2 -6.0°
Maximum altitude 19:56:54 75° 281° (W) 1,010 4.3 -6.8°
Drops below altitude 10° 20:03:07 10° 7° (N) 2,714 6.8 -7.6°
Sets 20:05:38 0° 9° (N) 3,659 7.4 -8.0°
